TimeEDT,TemperatureF,Dew PointF,Humidity,Sea Level PressureIn,VisibilityMPH,Wind Direction,Wind SpeedMPH,Gust SpeedMPH,PrecipitationIn,Events,Conditions,WindDirDegrees,DateUTC
12:53 AM,46.9,45.0,93,29.96,10.0,Calm,Calm,-,N/A,,Clear,0,2013-09-26 04:53:00
1:53 AM,46.9,45.0,93,29.96,10.0,Calm,Calm,-,N/A,,Clear,0,2013-09-26 05:53:00
2:53 AM,46.0,44.1,93,29.96,9.0,Calm,Calm,-,N/A,,Clear,0,2013-09-26 06:53:00
3:53 AM,46.0,44.1,93,29.96,10.0,Calm,Calm,-,N/A,,Clear,0,2013-09-26 07:53:00
4:53 AM,45.0,43.0,93,29.97,10.0,Calm,Calm,-,N/A,,Clear,0,2013-09-26 08:53:00
5:53 AM,45.0,43.0,93,29.98,10.0,Calm,Calm,-,N/A,,Clear,0,2013-09-26 09:53:00
6:53 AM,44.1,41.0,89,29.99,10.0,Calm,Calm,-,N/A,,Clear,0,2013-09-26 10:53:00
7:53 AM,46.0,44.1,93,30.02,10.0,Calm,Calm,-,N/A,,Clear,0,2013-09-26 11:53:00
8:53 AM,50.0,46.9,89,30.03,10.0,Calm,Calm,-,N/A,,Clear,0,2013-09-26 12:53:00
9:53 AM,57.0,51.1,81,30.05,10.0,Calm,Calm,-,N/A,,Clear,0,2013-09-26 13:53:00
10:53 AM,64.9,51.1,61,30.05,10.0,Calm,Calm,-,N/A,,Clear,0,2013-09-26 14:53:00
11:53 AM,70.0,50.0,49,30.04,10.0,East,4.6,-,N/A,,Clear,90,2013-09-26 15:53:00
12:53 PM,71.1,50.0,47,30.03,10.0,Variable,3.5,-,N/A,,Clear,0,2013-09-26 16:53:00
1:53 PM,73.0,48.0,41,30.02,10.0,Variable,3.5,-,N/A,,Partly Cloudy,0,2013-09-26 17:53:00
2:53 PM,73.9,48.9,41,30.02,10.0,NE,5.8,-,N/A,,Clear,40,2013-09-26 18:53:00
3:53 PM,75.0,48.0,38,30.01,10.0,NNE,5.8,-,N/A,,Partly Cloudy,20,2013-09-26 19:53:00
4:53 PM,73.9,48.0,40,30.02,10.0,NE,4.6,-,N/A,,Clear,50,2013-09-26 20:53:00
5:53 PM,73.0,46.0,38,30.03,10.0,Calm,Calm,-,N/A,,Partly Cloudy,0,2013-09-26 21:53:00
6:53 PM,61.0,53.1,75,30.04,10.0,West,3.5,-,N/A,,Clear,270,2013-09-26 22:53:00
7:53 PM,55.9,51.1,84,30.06,10.0,Calm,Calm,-,N/A,,Clear,0,2013-09-26 23:53:00
8:53 PM,54.0,50.0,86,30.08,10.0,Calm,Calm,-,N/A,,Partly Cloudy,0,2013-09-27 00:53:00
9:53 PM,52.0,48.9,89,30.08,10.0,Calm,Calm,-,N/A,,Clear,0,2013-09-27 01:53:00
10:53 PM,51.1,48.0,89,30.08,10.0,Calm,Calm,-,N/A,,Clear,0,2013-09-27 02:53:00
11:53 PM,52.0,50.0,93,30.09,10.0,Calm,Calm,-,N/A,,Overcast,0,2013-09-27 03:53:00